Preview of NWS' New Version of Forecast
This preview is not operational and should not be used for support decisions.

Regional Weather Roundup (RWR)

Issued by Gray - Portland, ME (GYX)

                            
033 
ASUS41 KGYX 210605
RWRGYX
WEATHER ROUNDUP FOR MAINE AND NEW HAMPSHIRE
NATIONAL WEATHER SERVICE GRAY ME
100 AM EST WED FEB 21 2018

MEZ002-005-006-010-012-015-018-020-021-024-026-027-029-210700-
MAINE
  
CITY           SKY/WX    TMP DP  RH WIND       PRES   REMARKS
PORTLAND       MOCLDY    37  37 100 CALM      30.27F FOG              
6HR MIN TEMP:  37; 6HR MAX TEMP:  41;                                

SANFORD        FOG       37  37 100 CALM      30.27S VSB 1/4          
BAR HARBOR     FOG       38  38 100 E3        30.26F VSB 1/4          
WISCASSET      FOG       35  35 100 CALM      30.26F VSB 1/2          
6HR MIN TEMP:  35; 6HR MAX TEMP:  39;                                

ROCKLAND       FOG       38  38 100 CALM      30.26F VSB 1/2          
FRYEBURG       FAIR      34  34 100 CALM      30.25S                  
6HR MIN TEMP:  34; 6HR MAX TEMP:  41; 6HR PCP: TRACE;                

LEWISTONAUBURN FOG       35  35 100 CALM      30.25F VSB 1/4          
AUGUSTA        FOG       36  36 100 CALM      30.25F VSB 1/4          
6HR MIN TEMP:  36; 6HR MAX TEMP:  37; 6HR PCP: TRACE;                

WATERVILLE     FOG       36  35  96 CALM      30.21S VSB 1/4          
BANGOR         FOG       35  35 100 CALM      30.25F VSB 1/2          
6HR MIN TEMP:  35; 6HR MAX TEMP:  39; 6HR PCP:  0.04;                

GREENVILLE       N/A     34  34 100 SE8       30.16F                  
6HR MIN TEMP:  34; 6HR MAX TEMP:  35; 6HR PCP:  0.11;                

MILLINOCKET    FOG       35  35 100 CALM      30.25F VSB 3/4          
6HR MIN TEMP:  34; 6HR MAX TEMP:  37; 6HR PCP:  0.13;                

HOULTON        FRZ RAIN  32  30  92 VRB7      30.24F FOG              
6HR MIN TEMP:  31; 6HR MAX TEMP:  35; 6HR PCP:  0.03;                

PRESQUE ISLE   MIX PCPN  30  28  92 SE13      30.23F WCI  20          
6HR MIN TEMP:  30; 6HR MAX TEMP:  34; 6HR PCP: TRACE;                

FRENCHVILLE    LGT SNOW  28  27  96 SE16      30.16F FOG     WCI  16  
6HR MIN TEMP:  28; 6HR MAX TEMP:  31; 6HR PCP:  0.02;                

CARIBOU        FRZ RAIN  31  28  89 S15G22    30.20F FOG              
6HR MIN TEMP:  31; 6HR MAX TEMP:  34; 6HR PCP:  0.01;                

$$

NHZ002-005-008-009-011-012-014-210700-
NEW HAMPSHIRE
  
CITY           SKY/WX    TMP DP  RH WIND       PRES   REMARKS
PORTSMOUTH     FOG       38  38  99 CALM      30.26F VSB 1/16         
ROCHESTER      FOG       37  37 100 N3        30.26S VSB 1/4          
6HR MIN TEMP:  37; 6HR MAX TEMP:  42;                                

NASHUA         FOG       39  39 100 CALM      30.26F VSB 1/4          
MANCHESTER     FAIR      40  38  93 CALM      30.25F FOG              
6HR MIN TEMP:  39; 6HR MAX TEMP:  51;                                

CONCORD        FOG       39  38  96 CALM      30.25F VSB 1/4          
6HR MIN TEMP:  39; 6HR MAX TEMP:  50;                                

LACONIA        CLOUDY    35  34  96 CALM      30.26S                  
PLYMOUTH       MOCLDY    34  33  95 CALM      30.25F                  
BERLIN         FOG       35  35 100 CALM      30.18S VSB 3/4          
6HR MIN TEMP:  35; 6HR MAX TEMP:  37; 6HR PCP: TRACE;                

WHITEFIELD     CLOUDY    37  37 100 CALM      30.18F FOG              
6HR MIN TEMP:  36; 6HR MAX TEMP:  39;                                

JAFFREY        FOG       40  50 100 S3        30.26S VSB 1/4          
6HR MIN TEMP:  38; 6HR MAX TEMP:  48;                                

KEENE          MOCLDY    34  32  92 CALM      30.26S                  
LEBANON        FOG       38  37  97 CALM      30.21S VSB 1/2          
6HR MIN TEMP:  36; 6HR MAX TEMP:  42;                                

MT WASHINGTON  FOG       43  43 100 W68G78      N/A  VSB 0            
6HR MIN TEMP:  42; 6HR MAX TEMP:  45; 6HR PCP:  0.04;                

$$

VTZ005-007-008-210700-
VERMONT
  
CITY           SKY/WX    TMP DP  RH WIND       PRES   REMARKS
ST JOHNSBURY     N/A     38  38 100 MISG      30.16F                  
MONTPELIER     FAIR      51  49  92 S15       30.20S                  
BURLINGTON     MOCLDY    59  50  72 S14       30.12F                  
$$

MAZ007-012-024-CTZ003-RIZ002-NYZ038-NYZ072-210700-
SOUTHERN NEW ENGLAND AND NY
  
CITY           SKY/WX    TMP DP  RH WIND       PRES   REMARKS
BOSTON         FAIR      41  40  96 E3        30.28S                  
WORCESTER      FAIR      55  50  83 SW14      30.27F                  
NANTUCKET      FOG       46  46 100 SW15      30.36S VSB 1/4          
PROVIDENCE     FAIR      56  53  90 SW15G23   30.31S                  
HARTFORD       FAIR      50  49  96 S8        30.29S                  
ALBANY         MOCLDY    57  50  77 S8        30.21F                  
NEW YORK CITY  MOCLDY    53  49  86 S7        30.32F                  
$$

ANZ081-ANZ082-ANZ150-NHZ014-MEZ023>029-210700-
COASTAL MARINE OBSERVATIONS
  
STATION/POSITION TIME  TEMP    WIND        PRES    WAVE
                       AIR SEA DIR/SP/G            HT/PER
                 (UTC) (F)     (DEG/KT/KT) (MB)    (FT/S)
MOUNT DESERT ROC 0600   43     150/  7/  8 1024.8R
MATINICUS ROCK   0500   41      70/  6/  7 1024.4R
ISLE OF SHOALS   0500   39      30/  3/  3 1025.3R
JEFFREYS LEDGE   0536      42                N/A     4/12
GEORGES BANK BUO 0450   48 61              1025.8   10/ 8
$$

.............KEY..............
   WCI - WIND CHILL
   TC  - TEMPERATURE IN CELSIUS
   VSB - VISIBILITY IN MILES
   HX  - HEAT INDEX
   FAIR- INDICATES FEW OR NO CLOUDS BELOW 12,000 FT, WITH NO 
         SIGNIFICANT WEATHER AND/OR OBSTRUCTIONS TO VISIBILITY.